Вернуться в каталог

AMC-7

GE-7

АктивенСвязьGEO
NORAD 26495·PAYLOAD·🇱🇺 Luxembourg

Запущен Sep 14, 2000 с Guiana Space Centre

Loading…

TLE

СвежийSource: Space-Track

Эпоха: Sep 14, 2026, 05:19 UTC

1 26495U 00054B   26257.22195074 -.00000081  00000-0  00000-0 0  9997
2 26495   7.1354  69.1518 0007382 119.8246 260.5096  0.99135095 94854

Отслеживайте AMC-7 в реальном времени с AllMySat

Download on the App Store